This is the latest recevied weather packets stored in our database for station/object OE2ATN. If no packets are shown the sender has not sent any weather packets the latest 10 day(s).
| Time | Temp. | Humidity | Pressure | Rain* | Wind** | Luminosity | Snow |
|---|---|---|---|---|---|---|---|
| 1777539822 | 11.11° C | 46% | 1032.1 hPa | 0 mm | - | - | - |
| 1777539522 | 11.11° C | 50% | 1032.1 hPa | 0 mm | - | - | - |
| 1777539221 | 11.11° C | 49% | 1032.2 hPa | 0 mm | - | - | - |
| 1777538920 | 10.56° C | 52% | 1032.1 hPa | 0 mm | - | - | - |
| 1777538620 | 10.56° C | 52% | 1032.2 hPa | 0 mm | - | - | - |
| 1777538321 | 10° C | 53% | 1032.3 hPa | 0 mm | - | - | - |
| 1777538020 | 10° C | 55% | 1032.2 hPa | 0 mm | - | - | - |
| 1777537720 | 9.44° C | 55% | 1032.3 hPa | 0 mm | - | - | - |
| 1777537418 | 9.44° C | 59% | 1032.2 hPa | 0 mm | - | - | - |
| 1777537115 | 9.44° C | 58% | 1032.4 hPa | 0 mm | - | - | - |
| 1777536816 | 8.89° C | 61% | 1032.4 hPa | 0 mm | - | - | - |
| 1777536515 | 8.89° C | 63% | 1032.4 hPa | 0 mm | - | - | - |
| 1777536215 | 8.33° C | 65% | 1032.5 hPa | 0 mm | - | - | - |
| 1777535915 | 8.33° C | 63% | 1032.6 hPa | 0 mm | - | - | - |
| 1777535615 | 7.78° C | 65% | 1032.6 hPa | 0 mm | - | - | - |
| 1777535315 | 7.78° C | 65% | 1032.6 hPa | 0 mm | - | - | - |
| 1777535015 | 7.22° C | 65% | 1032.6 hPa | 0 mm | - | - | - |
| 1777534714 | 7.22° C | 68% | 1032.8 hPa | 0 mm | - | - | - |
| 1777534414 | 6.67° C | 66% | 1032.9 hPa | 0 mm | - | - | - |
| 1777534114 | 6.67° C | 68% | 1032.9 hPa | 0 mm | - | - | - |
| 1777533814 | 6.67° C | 69% | 1032.9 hPa | 0 mm | - | - | - |
| 1777533514 | 6.11° C | 72% | 1033 hPa | 0 mm | - | - | - |
| 1777533215 | 5.56° C | 72% | 1032.9 hPa | 0 mm | - | - | - |
| 1777532915 | 5.56° C | 72% | 1033 hPa | 0 mm | - | - | - |
| 1777532615 | 5° C | 74% | 1033.3 hPa | 0 mm | - | - | - |
* Rain latest hour (hover to see other rain measurements)
** Current wind speed in m/s (hover to see current wind gust speed)